Home > Weather > Straubing > Past weeks

Flag for Germany Past Weather in Straubing, Bavaria, Germany — Yesterday and Last 2 Weeks

Now
52 °F

Low clouds.


Feels Like: 52 °F
Forecast: 47 / 72 °F
Wind: 2 mph from West

Location: Straubing

Current Time: May 25, 2016 at 9:21:05 AM

Latest Report: May 25, 2016 at 7:00 AM


Visibility: 5 mi

Pressure: 29.96 "Hg

Humidity: 95%

Dew Point: 51 °F

Location of StraubingLocation

Past Weather in Straubing — Graph

°F

Straubing Temperature Yesterday

Maximum temperature yesterday: 55 °F (at 4:00 PM)
Minimum temperature yesterday: 50 °F (at 1:00 AM)
Average temperature yesterday: 52 °F

High & Low Weather Summary for the Past Weeks

 TemperatureHumidityPressure
High81 °F (May 22, 6:00 PM)98% (May 24, 4:00 AM)30.17 "Hg (May 24, 4:00 AM)
Low35 °F (May 18, 6:00 AM)34% (May 22, 6:00 PM)29.38 "Hg (May 12, 3:00 PM)
Average55 °F75%29.86 "Hg
* Reported May 10 7:00 AM — May 25 7:00 AM, Straubing, Weather by CustomWeather, © 2016

Note: Actual official high and low records may vary slightly from our data, if they occured in-between our weather recording intervals... More about our weather records

Advertising

Straubing Weather History for the Previous 24 Hours

Scroll right to see more
 ConditionsComfort  
Time TempWeatherWind HumidityBarometerVisibility
7:00 AM
Wed, May 25
52 °FLow clouds.2 mph95%29.96 "Hg5 mi
6:00 AM51 °FDrizzle. Low clouds.2 mph96%29.97 "Hg2 mi
4:00 AM51 °FLow clouds.3 mph96%29.96 "Hg4 mi
3:00 AM51 °FOvercast.3 mph95%29.96 "Hg4 mi
1:00 AM51 °FOvercast.3 mph97%29.96 "Hg5 mi
12:00 AM51 °FDrizzle. Low clouds.3 mph97%29.95 "Hg3 mi
10:00 PM
Tue, May 24
52 °FOvercast.5 mph93%29.95 "Hg7 mi
9:00 PM53 °FOvercast.5 mph92%29.92 "Hg17 mi
7:00 PM53 °FLow clouds.5 mph94%29.90 "Hg31 mi
6:00 PM54 °FLow clouds.5 mph94%29.89 "Hg9 mi
4:00 PM55 °FLow clouds.5 mph91%29.88 "Hg31 mi
3:00 PM54 °FLow clouds.6 mph90%29.87 "Hg19 mi
1:00 PM53 °FLow clouds.5 mph94%29.88 "Hg18 mi
12:00 PM53 °FDrizzle. Low clouds.5 mph95%29.87 "Hg3 mi
10:00 AM52 °FDrizzle. Low clouds.5 mph96%29.84 "Hg7 mi
9:00 AM52 °FDrizzle. Low clouds.5 mph97%29.85 "Hg2 mi
Weather by CustomWeather, © 2016

See weather overviewHow to use our weather pages